STARLINK-11080 [DTC]

Last updated on Sat Sep 28 2024 00:02:03 GMT+0000 (Coordinated Universal Time)

1 60727U 24152H 24271.21824427 -.00005249 00000+0 -38520-4 0 9995 2 60727 53.1609 201.3450 0001297 85.0500 275.0666 15.69693831 5963
UTC large
Height (km)
Speed (km/s)
/
Latitude / Longitude
Inclination (degrees)
Orbital Period (minutes)
Azimuth
Elevation
Range (km)
Doppler Factor

Next 0 passes for location: London (51.5072 / 0.1276)

Sorry there are no passes over London.